UAE71J HECA-OMDB

Flight info

Callsign UAE71J
Flight time N/A
Altitude 41000
Route MENLI N697 SISIK W976 TAKSU L550 KARIK B411 DEESA Y415 LOTOK P559 VUTEB
Aircraft A332/H-SDE3GHIJ2J3J5M1RVWXY/LB2D1

Departure

Time 2026-05-07 19:15
Airport Cairo International Airport (HECA)

Arrival

Time N/A
Airport Dubai International Airport (OMDB)
Time Latitude Longitude Altitude Speed Heading
2026-05-07 18:48 30.11256 31.40141 378 ft 0 kts 214°
2026-05-07 18:50 30.11257 31.40141 378 ft 0 kts 214°
2026-05-07 19:04 30.11258 31.40141 378 ft 1 kts 214°
2026-05-07 19:04 30.11277 31.40157 378 ft 4 kts 214°
2026-05-07 19:04 30.11299 31.40175 378 ft 3 kts 214°
2026-05-07 19:04 30.11318 31.40188 378 ft 4 kts 196°
2026-05-07 19:05 30.11343 31.40188 378 ft 4 kts 154°
2026-05-07 19:05 30.11361 31.40176 378 ft 0 kts 150°
2026-05-07 19:08 30.11360 31.40177 378 ft 1 kts 150°
2026-05-07 19:08 30.11346 31.40188 378 ft 4 kts 143°
2026-05-07 19:08 30.11327 31.40218 378 ft 6 kts 121°
2026-05-07 19:09 30.11309 31.40269 378 ft 8 kts 109°
2026-05-07 19:09 30.11291 31.40337 378 ft 10 kts 106°
2026-05-07 19:09 30.11251 31.40406 378 ft 11 kts 136°
2026-05-07 19:09 30.11187 31.40471 378 ft 13 kts 140°
2026-05-07 19:10 30.11111 31.40546 378 ft 15 kts 139°
2026-05-07 19:10 30.11022 31.40625 378 ft 17 kts 158°
2026-05-07 19:10 30.10937 31.40559 378 ft 16 kts 228°
2026-05-07 19:10 30.10860 31.40457 378 ft 18 kts 229°
2026-05-07 19:11 30.10772 31.40341 378 ft 20 kts 229°
2026-05-07 19:11 30.10674 31.40212 378 ft 22 kts 228°
2026-05-07 19:11 30.10570 31.40075 378 ft 24 kts 229°
2026-05-07 19:11 30.10456 31.39923 378 ft 26 kts 229°
2026-05-07 19:12 30.10338 31.39767 378 ft 27 kts 229°
2026-05-07 19:12 30.10227 31.39620 378 ft 21 kts 229°
2026-05-07 19:12 30.10112 31.39610 378 ft 19 kts 140°
2026-05-07 19:12 30.10087 31.39634 378 ft 2 kts 140°
2026-05-07 19:13 30.10070 31.39650 378 ft 4 kts 140°
2026-05-07 19:13 30.10041 31.39681 378 ft 7 kts 135°
2026-05-07 19:13 30.10010 31.39729 378 ft 8 kts 117°
2026-05-07 19:13 30.10001 31.39802 378 ft 11 kts 92°
2026-05-07 19:14 30.10019 31.39895 378 ft 13 kts 48°
2026-05-07 19:14 30.10121 31.40028 376 ft 44 kts 49°
2026-05-07 19:14 30.10470 31.40490 382 ft 109 kts 49°
2026-05-07 19:14 30.11098 31.41323 412 ft 162 kts 47°
2026-05-07 19:15 30.11888 31.42368 1131 ft 173 kts 47°
2026-05-07 19:15 30.12408 31.43590 2147 ft 178 kts 78°
2026-05-07 19:15 30.12157 31.45096 2620 ft 215 kts 115°
2026-05-07 19:15 30.10983 31.46410 2825 ft 257 kts 142°
2026-05-07 19:16 30.09294 31.47415 3146 ft 283 kts 148°
2026-05-07 19:16 30.07641 31.48625 4103 ft 281 kts 140°
2026-05-07 19:16 30.06128 31.50044 5172 ft 279 kts 136°
2026-05-07 19:16 30.04736 31.51608 6155 ft 281 kts 131°
2026-05-07 19:17 30.03396 31.53301 6937 ft 291 kts 129°
2026-05-07 19:17 30.02065 31.55096 7783 ft 297 kts 129°
2026-05-07 19:17 30.00725 31.56945 8647 ft 305 kts 128°
2026-05-07 19:17 29.99357 31.58832 9594 ft 310 kts 129°
2026-05-07 19:18 29.97976 31.60717 10509 ft 312 kts 129°
2026-05-07 19:18 29.96520 31.62686 10942 ft 335 kts 129°
2026-05-07 19:18 29.94953 31.64789 11259 ft 356 kts 130°
2026-05-07 19:18 29.93301 31.66992 11848 ft 368 kts 130°
2026-05-07 19:19 29.91627 31.69213 12772 ft 368 kts 130°
2026-05-07 19:19 29.89928 31.71465 13557 ft 374 kts 130°
2026-05-07 19:19 29.88222 31.73725 14400 ft 375 kts 130°
2026-05-07 19:19 29.86519 31.75983 15122 ft 380 kts 130°
2026-05-07 19:20 29.84765 31.78306 15941 ft 381 kts 130°
2026-05-07 19:20 29.83015 31.80625 16667 ft 386 kts 131°
2026-05-07 19:20 29.81240 31.82976 17448 ft 389 kts 130°
2026-05-07 19:20 29.79484 31.85369 18147 ft 394 kts 124°
2026-05-07 19:21 29.78192 31.88152 18782 ft 397 kts 112°
2026-05-07 19:21 29.77228 31.91142 19436 ft 399 kts 107°
2026-05-07 19:21 29.76457 31.94222 20057 ft 403 kts 103°
2026-05-07 19:21 29.75782 31.97366 20651 ft 407 kts 102°
2026-05-07 19:22 29.75139 32.00550 21268 ft 411 kts 102°
2026-05-07 19:22 29.74489 32.03769 21893 ft 414 kts 102°
2026-05-07 19:22 29.73820 32.06994 22471 ft 418 kts 103°
2026-05-07 19:22 29.73130 32.10222 23056 ft 422 kts 103°
2026-05-07 19:23 29.72403 32.13551 23621 ft 426 kts 103°
2026-05-07 19:23 29.71665 32.16872 24094 ft 430 kts 103°
2026-05-07 19:23 29.70919 32.20204 24546 ft 433 kts 103°
2026-05-07 19:23 29.70160 32.23580 25030 ft 436 kts 103°
2026-05-07 19:24 29.69409 32.26916 25480 ft 439 kts 103°
2026-05-07 19:24 29.68630 32.30377 25937 ft 442 kts 103°
2026-05-07 19:24 29.67857 32.33808 26379 ft 445 kts 103°
2026-05-07 19:24 29.67086 32.37228 26807 ft 449 kts 103°
2026-05-07 19:25 29.66301 32.40708 27231 ft 452 kts 103°
2026-05-07 19:25 29.65508 32.44224 27666 ft 455 kts 103°
2026-05-07 19:25 29.64709 32.47757 28089 ft 459 kts 103°
2026-05-07 19:25 29.63904 32.51315 28513 ft 462 kts 103°
2026-05-07 19:26 29.63091 32.54904 28933 ft 465 kts 103°
2026-05-07 19:26 29.62273 32.58509 29352 ft 468 kts 103°
2026-05-07 19:26 29.61446 32.62148 29760 ft 472 kts 103°
2026-05-07 19:26 29.60649 32.65811 30146 ft 475 kts 100°
2026-05-07 19:27 29.60201 32.69576 30489 ft 476 kts 91°
2026-05-07 19:27 29.60067 32.73378 30873 ft 477 kts 89°
2026-05-07 19:27 29.60031 32.77187 31244 ft 479 kts 88°
2026-05-07 19:27 29.60054 32.81004 31607 ft 481 kts 87°
2026-05-07 19:28 29.60105 32.84868 31946 ft 483 kts 87°
2026-05-07 19:28 29.60164 32.88742 32341 ft 485 kts 87°
2026-05-07 19:28 29.60219 32.92606 32851 ft 483 kts 88°
2026-05-07 19:28 29.60267 32.96454 33417 ft 480 kts 88°
2026-05-07 19:29 29.60307 33.00282 33974 ft 478 kts 88°
2026-05-07 19:29 29.60342 33.04099 34374 ft 477 kts 88°
2026-05-07 19:29 29.60374 33.07919 34652 ft 479 kts 88°
2026-05-07 19:29 29.60404 33.11755 34932 ft 481 kts 88°
2026-05-07 19:30 29.60432 33.15597 35237 ft 482 kts 88°
2026-05-07 19:30 29.60459 33.19447 35539 ft 484 kts 89°
2026-05-07 19:30 29.60485 33.23321 35822 ft 485 kts 89°
2026-05-07 19:30 29.60511 33.27216 36127 ft 486 kts 89°
2026-05-07 19:31 29.60535 33.31101 36446 ft 487 kts 89°
2026-05-07 19:31 29.60558 33.34981 36832 ft 486 kts 89°
2026-05-07 19:31 29.60581 33.38865 37124 ft 487 kts 89°
2026-05-07 19:31 29.60602 33.42756 37382 ft 488 kts 89°
2026-05-07 19:32 29.60622 33.46661 37637 ft 490 kts 89°
2026-05-07 19:32 29.60641 33.50579 37915 ft 490 kts 89°
2026-05-07 19:32 29.60658 33.54448 38197 ft 491 kts 89°
2026-05-07 19:32 29.60675 33.58423 38489 ft 492 kts 89°
2026-05-07 19:33 29.60690 33.62307 38762 ft 492 kts 89°
2026-05-07 19:33 29.60704 33.66238 38989 ft 493 kts 89°
2026-05-07 19:33 29.60718 33.70228 39159 ft 493 kts 91°
2026-05-07 19:33 29.60730 33.74149 39129 ft 501 kts 92°
2026-05-07 19:34 29.60748 33.82211 39434 ft 505 kts 92°
2026-05-07 19:34 29.60750 33.86220 39784 ft 501 kts 92°
2026-05-07 19:34 29.60748 33.90205 40099 ft 499 kts 92°
2026-05-07 19:35 29.60742 33.94184 40281 ft 500 kts 92°
2026-05-07 19:35 29.60734 33.98189 40410 ft 502 kts 93°
2026-05-07 19:35 29.60725 34.02208 40588 ft 502 kts 93°
2026-05-07 19:35 29.60715 34.06219 40813 ft 502 kts 93°
2026-05-07 19:36 29.60705 34.10234 41040 ft 502 kts 93°
2026-05-07 19:36 29.60693 34.14259 41063 ft 506 kts 93°
2026-05-07 19:36 29.60667 34.22377 41050 ft 509 kts 93°
2026-05-07 19:37 29.60666 34.30516 41060 ft 509 kts 92°
2026-05-07 19:37 29.60682 34.38659 41052 ft 509 kts 92°
2026-05-07 19:38 29.60693 34.46769 41051 ft 510 kts 93°
2026-05-07 19:38 29.60219 34.54849 41044 ft 501 kts 107°
2026-05-07 19:39 29.57702 34.62117 41035 ft 484 kts 129°
2026-05-07 19:39 29.55656 34.65154 41011 ft 475 kts 140°
2026-05-07 19:39 29.53282 34.67759 41031 ft 470 kts 144°
2026-05-07 19:40 29.48391 34.72747 41013 ft 475 kts 140°
2026-05-07 19:40 29.44567 34.79034 40999 ft 492 kts 119°
2026-05-07 19:41 29.42695 34.86670 40986 ft 502 kts 105°
2026-05-07 19:41 29.41767 34.94634 40987 ft 508 kts 94°
2026-05-07 19:42 29.41979 34.98684 40997 ft 512 kts 83°
2026-05-07 19:42 29.42675 35.02684 41014 ft 512 kts 79°
2026-05-07 19:42 29.44451 35.10632 41013 ft 515 kts 76°
2026-05-07 19:43 29.46371 35.18543 41001 ft 515 kts 76°
2026-05-07 19:43 29.48274 35.26476 41018 ft 515 kts 76°
2026-05-07 19:44 29.50127 35.34374 41042 ft 515 kts 77°
2026-05-07 19:44 29.51973 35.42328 41027 ft 517 kts 76°
2026-05-07 19:45 29.53821 35.50295 41009 ft 517 kts 77°
2026-05-07 19:45 29.55705 35.58257 41017 ft 517 kts 76°
2026-05-07 19:46 29.57596 35.66222 41012 ft 517 kts 77°
2026-05-07 19:46 29.59489 35.74218 41011 ft 518 kts 77°
2026-05-07 19:47 29.61329 35.82208 41016 ft 518 kts 79°
2026-05-07 19:47 29.62765 35.90336 41023 ft 517 kts 82°
2026-05-07 19:48 29.64023 35.98475 41020 ft 517 kts 82°
2026-05-07 19:48 29.65281 36.06546 41003 ft 518 kts 82°
2026-05-07 19:49 29.66594 36.14750 41025 ft 517 kts 82°
2026-05-07 19:49 29.67906 36.22870 41004 ft 518 kts 82°
2026-05-07 19:50 29.69211 36.30969 41004 ft 519 kts 82°
2026-05-07 19:50 29.70308 36.37798 41012 ft 519 kts 82°
2026-05-07 19:51 29.71846 36.47288 41003 ft 520 kts 82°
2026-05-07 19:51 29.73172 36.55467 41021 ft 518 kts 82°
2026-05-07 19:52 29.74273 36.62283 41011 ft 517 kts 82°
2026-05-07 19:52 29.74590 36.70433 41015 ft 506 kts 102°
2026-05-07 19:53 29.73369 36.78376 41021 ft 502 kts 107°
2026-05-07 19:53 29.71825 36.86119 41023 ft 500 kts 109°
2026-05-07 19:54 29.70210 36.93895 41025 ft 499 kts 109°
2026-05-07 19:54 29.68621 37.01670 41025 ft 500 kts 109°
2026-05-07 19:55 29.67051 37.09453 41020 ft 501 kts 108°
2026-05-07 19:55 29.65482 37.17253 41021 ft 500 kts 108°
2026-05-07 19:56 29.63908 37.25051 41018 ft 502 kts 109°
2026-05-07 19:56 29.62323 37.32868 41036 ft 502 kts 109°
2026-05-07 19:57 29.60736 37.40673 41038 ft 502 kts 109°
2026-05-07 19:57 29.59139 37.48501 41037 ft 502 kts 109°
2026-05-07 19:58 29.57538 37.56324 41051 ft 504 kts 109°
2026-05-07 19:58 29.55931 37.64154 41036 ft 504 kts 109°
2026-05-07 19:59 29.54330 37.71927 41015 ft 505 kts 109°
2026-05-07 19:59 29.52696 37.79831 41030 ft 506 kts 109°
2026-05-07 20:00 29.51882 37.83758 41555 ft 505 kts 108°
2026-05-07 20:00 29.51069 37.87682 40947 ft 504 kts 109°
2026-05-07 20:00 29.49443 37.95513 41021 ft 505 kts 109°
2026-05-07 20:01 29.47878 38.03396 41022 ft 508 kts 108°
2026-05-07 20:01 29.46470 38.11364 41039 ft 509 kts 107°
2026-05-07 20:02 29.45092 38.19312 41011 ft 509 kts 107°
2026-05-07 20:02 29.43701 38.27211 41037 ft 509 kts 107°
2026-05-07 20:03 29.42281 38.35164 41042 ft 509 kts 107°
2026-05-07 20:03 29.40855 38.43105 41042 ft 509 kts 108°
2026-05-07 20:04 29.39421 38.51055 41048 ft 509 kts 108°
2026-05-07 20:04 29.37988 38.58981 41067 ft 508 kts 108°
2026-05-07 20:05 29.36545 38.66929 41029 ft 509 kts 108°
2026-05-07 20:05 29.35099 38.74870 41043 ft 510 kts 108°
2026-05-07 20:06 29.33647 38.82815 41057 ft 509 kts 108°
2026-05-07 20:06 29.32185 38.90745 41046 ft 508 kts 108°
2026-05-07 20:07 29.30593 38.98596 41064 ft 508 kts 110°
2026-05-07 20:07 29.28927 39.06455 41067 ft 507 kts 110°
2026-05-07 20:08 29.27256 39.14330 41051 ft 508 kts 110°
2026-05-07 20:08 29.25610 39.22129 41066 ft 508 kts 110°
2026-05-07 20:09 29.23935 39.30064 41063 ft 509 kts 110°
2026-05-07 20:10 29.21435 39.41876 41078 ft 509 kts 110°
2026-05-07 20:10 29.19764 39.49734 41060 ft 510 kts 110°
2026-05-07 20:11 29.18083 39.57615 41074 ft 509 kts 110°
2026-05-07 20:11 29.16398 39.65495 41090 ft 508 kts 110°
2026-05-07 20:12 29.14716 39.73331 41083 ft 508 kts 110°
2026-05-07 20:12 29.13041 39.81112 41055 ft 508 kts 110°
2026-05-07 20:13 29.11346 39.88958 41094 ft 507 kts 110°
2026-05-07 20:13 29.09884 39.96873 41090 ft 511 kts 107°
2026-05-07 20:14 29.08656 40.04887 41062 ft 512 kts 106°
2026-05-07 20:14 29.07441 40.12907 41089 ft 511 kts 106°
2026-05-07 20:15 29.06191 40.20914 41084 ft 512 kts 107°
2026-05-07 20:15 29.04914 40.28927 41078 ft 514 kts 107°
2026-05-07 20:16 29.03622 40.36968 41088 ft 514 kts 107°
2026-05-07 20:16 29.02331 40.44982 41093 ft 514 kts 107°
2026-05-07 20:17 29.01036 40.52991 41092 ft 513 kts 107°
2026-05-07 20:17 28.99731 40.61033 41082 ft 514 kts 107°
2026-05-07 20:18 28.98422 40.69068 41075 ft 515 kts 107°
2026-05-07 20:18 28.97105 40.77117 41065 ft 516 kts 107°
2026-05-07 20:19 28.95783 40.85171 41071 ft 515 kts 107°
2026-05-07 20:19 28.94465 40.93177 41057 ft 515 kts 108°
2026-05-07 20:20 28.93129 41.01245 41075 ft 516 kts 108°
2026-05-07 20:20 28.91792 41.09293 41076 ft 515 kts 108°
2026-05-07 20:21 28.90453 41.17326 41085 ft 515 kts 108°
2026-05-07 20:21 28.89109 41.25355 41080 ft 515 kts 108°
2026-05-07 20:22 28.87762 41.33375 41077 ft 514 kts 108°
2026-05-07 20:22 28.86410 41.41394 41072 ft 514 kts 108°
2026-05-07 20:23 28.85055 41.49397 41065 ft 515 kts 108°
2026-05-07 20:23 28.83693 41.57410 41026 ft 515 kts 108°
2026-05-07 20:24 28.82327 41.65423 41045 ft 514 kts 108°
2026-05-07 20:24 28.80957 41.73421 41056 ft 514 kts 108°
2026-05-07 20:25 28.79583 41.81416 41047 ft 513 kts 108°
2026-05-07 20:25 28.78209 41.89395 41046 ft 512 kts 108°
2026-05-07 20:26 28.76831 41.97353 41043 ft 512 kts 108°
2026-05-07 20:26 28.75456 42.05270 41053 ft 511 kts 108°
2026-05-07 20:27 28.74062 42.13262 41026 ft 512 kts 108°
2026-05-07 20:27 28.72688 42.21113 41017 ft 511 kts 108°
2026-05-07 20:28 28.71291 42.29076 41023 ft 510 kts 109°
2026-05-07 20:28 28.69897 42.36986 41020 ft 510 kts 109°
2026-05-07 20:29 28.68494 42.44913 41022 ft 510 kts 109°
2026-05-07 20:29 28.67093 42.52811 41035 ft 508 kts 109°
2026-05-07 20:30 28.65690 42.60687 41025 ft 509 kts 109°
2026-05-07 20:30 28.64267 42.68590 41024 ft 509 kts 110°
2026-05-07 20:31 28.62713 42.76441 41029 ft 508 kts 111°
2026-05-07 20:31 28.61099 42.84262 41010 ft 508 kts 111°
2026-05-07 20:32 28.59481 42.92089 41016 ft 508 kts 111°
2026-05-07 20:32 28.57874 42.99906 41022 ft 507 kts 111°
2026-05-07 20:33 28.56262 43.07741 41014 ft 509 kts 111°
2026-05-07 20:33 28.54647 43.15577 41014 ft 509 kts 111°
2026-05-07 20:34 28.53025 43.23418 41899 ft 509 kts 105°
2026-05-07 20:34 28.52217 43.27325 40921 ft 506 kts 111°
2026-05-07 20:34 28.51407 43.31225 41012 ft 508 kts 111°
2026-05-07 20:35 28.49777 43.39056 41006 ft 510 kts 111°
2026-05-07 20:35 28.48138 43.46904 41022 ft 511 kts 111°
2026-05-07 20:36 28.46494 43.54760 41008 ft 512 kts 111°
2026-05-07 20:36 28.44858 43.62557 40991 ft 512 kts 111°
2026-05-07 20:37 28.43180 43.70517 40995 ft 513 kts 111°
2026-05-07 20:37 28.41799 43.77059 40987 ft 513 kts 112°
2026-05-07 20:38 28.39864 43.86202 40998 ft 512 kts 112°
2026-05-07 20:38 28.38210 43.94095 40986 ft 515 kts 111°
2026-05-07 20:39 28.36569 44.01993 40990 ft 514 kts 111°
2026-05-07 20:39 28.35191 44.08612 40996 ft 514 kts 112°
2026-05-07 20:40 28.33539 44.16503 40987 ft 514 kts 112°
2026-05-07 20:40 28.31877 44.24410 40972 ft 515 kts 112°
2026-05-07 20:41 28.30225 44.32249 40991 ft 514 kts 112°
2026-05-07 20:41 28.28562 44.40116 40987 ft 513 kts 112°
2026-05-07 20:42 28.26891 44.47991 41967 ft 514 kts 112°
2026-05-07 20:42 28.26054 44.51925 40953 ft 512 kts 112°
2026-05-07 20:42 28.25220 44.55850 40981 ft 512 kts 112°
2026-05-07 20:43 28.23542 44.63705 40978 ft 513 kts 112°
2026-05-07 20:43 28.21862 44.71564 40997 ft 512 kts 112°
2026-05-07 20:44 28.20183 44.79389 40981 ft 512 kts 112°
2026-05-07 20:44 28.18491 44.87240 40987 ft 513 kts 112°
2026-05-07 20:45 28.16796 44.95090 40992 ft 512 kts 112°
2026-05-07 20:45 28.15093 45.02904 40974 ft 509 kts 115°
2026-05-07 20:45 28.13934 45.06645 40987 ft 496 kts 124°
2026-05-07 20:46 28.12399 45.10107 40988 ft 489 kts 129°
2026-05-07 20:46 28.09022 45.16751 40975 ft 485 kts 131°
2026-05-07 20:47 28.05521 45.23220 41001 ft 482 kts 132°
2026-05-07 20:47 28.02001 45.29690 40983 ft 483 kts 132°
2026-05-07 20:48 27.98486 45.36191 40969 ft 485 kts 132°
2026-05-07 20:48 27.95009 45.42655 40966 ft 483 kts 132°
2026-05-07 20:49 27.91515 45.49147 40981 ft 483 kts 132°
2026-05-07 20:49 27.88323 45.55902 40988 ft 499 kts 120°
2026-05-07 20:50 27.86335 45.63533 40970 ft 511 kts 113°
2026-05-07 20:50 27.84712 45.71377 40975 ft 514 kts 111°
2026-05-07 20:51 27.83153 45.79265 42050 ft 514 kts 108°
2026-05-07 20:51 27.82364 45.83192 40930 ft 512 kts 111°
2026-05-07 20:51 27.81567 45.87116 40967 ft 512 kts 112°
2026-05-07 20:52 27.79950 45.94970 40968 ft 514 kts 112°
2026-05-07 20:52 27.78318 46.02821 40988 ft 513 kts 112°
2026-05-07 20:53 27.76683 46.10669 40966 ft 513 kts 112°
2026-05-07 20:53 27.75043 46.18511 40949 ft 514 kts 112°
2026-05-07 20:54 27.73392 46.26388 40979 ft 515 kts 112°
2026-05-07 20:54 27.71757 46.34227 40957 ft 515 kts 111°
2026-05-07 20:55 27.70158 46.42066 40977 ft 508 kts 111°
2026-05-07 20:55 27.68588 46.49766 40971 ft 500 kts 112°
2026-05-07 20:56 27.66996 46.57318 40970 ft 492 kts 113°